RH
41 39 38 31 22 17 17 16 15 37 26 19 15 15 11 8 7 4 6 6 4 4 3 3 2 2 2 2 4 6 6 11 13 15 17 20 23 28 35 38 39 40 47 48 49 50 49
37 37 35 31 24 16 16 15 15 39 27 21 19 17 14 13 10 9 7 11 9 8 6 4 4 4 4 5 6 6 7 10 12 14 16 18 22 27 31 36 38 38 43 43 48 52 52
31 32 31 31 25 14 15 14 15 36 29 24 21 20 16 14 13 11 11 13 21 12 14 14 10 6 7 9 9 8 7 9 11 13 14 16 20 26 31 35 36 36 40 43 42 48 50
27 28 27 27 23 13 14 14 14 35 32 27 24 24 19 16 17 16 14 14 22 30 24 22 17 15 8 10 9 8 7 10 12 14 15 16 20 26 30 33 33 37 40 44 41 42 47
20 21 22 22 20 14 13 13 14 34 37 31 26 28 22 18 20 21 19 21 19 51 70 49 32 22 20 16 11 9 9 9 14 14 16 18 20 23 28 29 32 34 38 43 45 42 44
17 16 17 18 17 12 12 12 15 36 39 37 31 28 27 21 17 23 16 19 19 23 58 87 76 50 38 29 19 12 9 11 14 14 16 18 19 21 24 26 31 33 37 46 45 44 38
17 14 16 16 14 11 12 12 19 39 35 42 37 30 28 24 20 17 22 13 16 20 16 46 46 45 29 32 18 13 11 11 13 15 16 19 20 23 24 25 27 30 34 44 46 44 38
17 14 13 14 14 11 11 12 22 46 38 40 44 38 31 30 23 18 21 20 15 14 16 15 22 27 38 30 15 13 12 12 16 16 17 18 22 27 24 24 31 32 38 40 46 46 39
18 16 13 13 12 12 12 12 28 56 44 40 46 45 38 32 31 21 17 22 21 17 13 12 13 13 21 28 16 11 14 12 15 18 18 18 21 33 29 25 28 32 39 38 34 40 35
26 21 16 13 12 13 13 12 27 58 64 43 40 40 43 38 34 30 22 19 22 23 18 12 14 13 11 10 15 11 14 12 18 18 20 22 21 23 35 28 31 32 38 42 37 38 37
26 18 14 17 16 19 14 13 27 60 72 55 38 35 44 36 36 34 31 25 20 21 24 20 13 11 12 13 14 12 12 18 16 23 20 23 22 22 30 31 35 32 32 37 37 36 34
17 15 28 27 37 30 24 20 22 48 66 72 54 40 42 42 36 36 34 34 28 22 18 21 24 20 15 13 16 14 17 16 21 19 25 26 23 28 30 27 33 40 31 29 33 33 36
15 24 47 55 58 54 49 47 39 42 60 83 83 65 46 49 43 37 37 34 37 30 23 20 18 23 26 21 16 14 18 25 23 25 23 25 25 25 26 28 35 39 33 29 28 28 36
27 37 63 80 81 75 65 66 62 59 56 91 88 100 58 61 55 53 41 40 39 36 33 28 25 19 18 24 26 25 19 19 22 28 26 25 22 23 26 28 31 33 34 36 40 39 37
43 65 69 88 97 95 82 75 72 69 66 82 95 96 89 63 75 72 67 44 44 40 38 38 34 27 23 19 18 24 27 29 23 24 28 34 30 26 25 24 23 24 26 28 30 29 26
73 81 86 89 98 100 100 95 88 76 76 66 75 91 79 84 89 88 89 70 48 51 49 42 39 39 36 32 21 21 20 24 28 30 29 28 24 23 25 26 27 26 26 26 26 27 30
100 100 100 100 100 100 100 90 73 73 77 75 80 93 97 85 92 97 96 96 74 51 51 62 49 47 43 36 43 36 27 21 21 21 23 31 33 34 31 32 31 29 28 28 28 28 28
100 100 100 100 100 100 100 100 99 94 88 69 77 94 95 94 100 99 92 86 96 81 52 59 67 56 57 52 42 34 41 37 30 22 22 22 24 24 24 26 29 32 33 34 33 32 29
99 100 100 91 97 100 100 100 100 100 100 100 85 77 95 99 99 100 100 100 73 98 88 61 79 66 60 55 68 47 42 37 48 42 32 30 23 28 31 29 23 23 24 25 24 23 21
98 95 100 100 93 91 94 100 87 88 97 82 74 72 61 59 64 70 79 91 100 83 82 88 74 99 79 63 66 82 65 49 42 40 46 40 37 29 32 28 31 26 30 32 25 24 25
100 100 100 100 100 100 93 99 100 86 96 86 97 85 81 72 64 61 63 66 65 80 99 90 82 92 100 100 96 77 70 81 64 56 50 43 34 39 39 32 30 27 30 32 37 39 42
100 100 100 100 99 98 100 100 100 100 100 100 100 100 100 100 77 73 75 88 65 60 50 67 86 94 78 91 100 100 100 78 99 93 100 80 52 49 54 60 46 42 42 30 32 30 42
100 100 100 100 100 100 100 100 100 100 100 93 94 89 98 100 100 100 87 94 98 99 88 67 51 54 83 73 68 71 96 100 88 90 100 94 69 88 88 84 54 61 54 38 47 35 32
100 100 100 100 100 100 100 100 98 100 100 83 66 71 76 98 100 100 100 100 100 100 98 97 94 86 63 67 90 98 73 82 94 100 91 99 100 100 95 79 95 93 95 92 71 80 65
100 100 100 100 100 100 100 100 100 99 100 99 84 67 54 62 80 87 98 98 100 100 100 100 100 100 99 99 89 99 94 89 100 96 76 62 76 84 100 100 96 71 91 100 100 99 92
100 100 100 100 100 100 100 100 100 100 100 100 100 100 100 68 65 59 75 92 81 71 73 98 100 100 97 93 95 99 96 100 84 74 82 94 84 73 62 69 66 70 99 92 84 100 100
100 100 100 100 100 100 100 100 100 100 100 100 100 100 100 100 100 100 100 100 99 86 90 90 88 83 97 100 94 84 85 84 92 84 87 83 75 79 59 77 84 59 52 85 100 100 100
100 100 100 100 100 100 100 99 99 100 100 100 100 100 100 100 100 100 100 96 100 97 79 76 89 96 80 79 73 90 98 99 100 88 68 64 63 61 64 64 78 75 54 54 54 70 100
100 100 100 100 100 100 100 99 97 98 90 96 93 100 100 100 100 100 100 90 87 92 87 98 79 66 81 100 100 95 100 100 100 100 100 89 65 55 62 57 64 83 88 56 62 61 52
Wind_Speed
38 43 48 56 63 65 70 75 79 81 91 99 105 112 96 85 67 52 50 44 40 29 13 4 13 24 37 48 60 71 84 114 119 117 115 108 100 98 91 85 75 72 67 62 62 71 69
42 45 48 56 61 64 69 73 75 76 86 94 101 108 103 90 76 61 51 48 41 37 26 16 9 18 28 40 53 60 72 101 118 119 116 112 103 99 92 86 77 73 70 66 65 67 67
43 45 49 55 58 64 65 69 72 71 80 89 96 102 105 87 82 68 55 46 40 33 34 24 16 13 31 38 48 59 72 89 114 119 118 113 104 96 91 83 80 74 72 69 63 64 65
45 47 50 55 56 62 62 65 67 66 74 83 92 98 101 101 80 72 57 46 41 33 29 31 23 16 17 32 43 56 70 84 101 115 111 108 99 92 90 86 81 77 72 71 66 63 64
48 48 50 53 55 60 59 61 60 60 68 78 86 92 97 100 87 78 64 47 37 37 33 33 22 22 14 15 33 48 63 81 96 110 107 106 98 98 95 93 88 80 74 72 68 64 65
48 50 51 51 54 58 55 55 52 54 62 73 80 86 92 96 97 81 72 54 39 28 25 25 17 21 21 13 26 40 54 70 88 107 105 105 103 100 98 95 90 82 76 73 71 67 65
48 49 50 49 53 51 51 48 44 49 57 68 75 81 87 91 94 90 83 65 45 33 28 16 18 25 27 19 23 34 48 64 79 95 106 106 101 98 95 93 88 83 77 72 70 70 67
49 47 47 45 49 46 45 40 39 45 52 62 69 76 84 90 93 95 81 78 65 49 33 23 17 29 30 23 25 29 43 59 71 85 97 102 100 96 94 89 85 80 78 75 72 71 70
45 45 43 45 42 39 37 36 35 41 49 57 63 69 75 81 88 90 94 79 74 66 48 36 25 13 26 26 25 30 38 49 64 78 90 98 100 96 90 87 86 80 77 77 75 73 71
38 36 38 38 33 31 31 32 32 38 45 53 59 65 69 76 81 87 88 93 76 72 65 48 40 30 18 20 25 30 32 43 57 68 83 89 92 96 91 86 84 81 79 77 78 75 74
31 28 29 28 27 28 29 31 30 35 42 48 54 59 65 70 73 79 83 87 90 76 67 64 54 43 34 17 21 24 28 37 46 59 70 81 85 85 89 85 84 81 79 78 78 78 77
21 22 22 22 24 30 30 30 31 33 39 43 49 55 60 65 69 73 76 79 83 84 75 63 61 59 52 40 22 16 20 27 39 49 62 70 79 81 82 83 84 81 79 78 78 79 77
15 16 17 20 26 27 29 32 33 33 36 39 42 49 53 57 62 66 69 73 75 77 77 79 65 58 54 49 40 30 20 11 26 37 49 61 68 73 77 79 80 80 77 77 79 79 79
13 14 15 20 23 25 29 30 32 33 35 35 37 40 47 51 56 59 62 64 69 69 72 72 75 70 54 46 43 38 30 25 16 12 30 44 57 67 72 77 79 81 82 81 79 80 80
13 14 17 20 22 25 27 28 28 31 33 34 33 34 40 43 47 51 55 57 58 62 63 64 67 67 66 59 43 36 32 28 20 13 13 21 38 50 60 67 73 78 81 84 86 87 84
18 19 19 21 22 24 23 24 26 28 28 31 31 32 34 38 39 43 46 49 52 52 56 58 58 60 61 61 55 50 37 25 20 15 9 4 7 18 32 43 52 58 64 70 75 78 78
21 22 20 18 20 20 20 24 26 30 25 26 30 29 33 33 35 37 38 41 44 47 46 48 52 53 55 51 52 51 50 40 33 22 10 3 2 5 9 14 20 27 32 38 43 48 53
24 23 20 20 19 18 19 19 28 29 23 26 31 29 29 31 32 32 32 34 35 40 42 41 41 44 45 45 46 42 43 41 41 35 33 27 19 7 4 11 14 20 23 26 29 32 33
26 25 25 23 24 22 22 23 23 21 19 22 30 29 29 29 32 34 31 31 33 29 33 34 33 33 37 37 37 37 34 32 32 33 30 30 27 29 29 22 17 13 9 5 3 8 13
28 28 27 25 29 27 28 31 31 32 32 35 37 35 31 32 33 32 31 33 27 27 25 24 27 27 30 30 29 30 29 27 26 25 24 23 23 18 19 19 20 19 20 19 15 13 13
33 34 33 32 29 30 31 29 31 35 36 36 37 40 42 39 38 39 39 37 36 29 23 25 21 19 21 26 29 25 23 22 22 22 20 19 16 16 18 17 14 12 8 8 13 13 14
41 37 36 38 39 35 31 30 28 26 33 33 32 40 40 42 40 40 41 42 45 41 36 25 21 19 17 15 20 24 24 22 19 17 19 19 19 19 18 17 20 14 17 7 6 11 10
36 42 42 36 38 37 34 34 34 42 41 40 37 33 36 39 41 43 41 39 36 33 36 39 41 31 21 23 22 21 20 23 22 19 22 18 18 22 22 25 24 22 19 19 16 11 9
43 41 40 42 43 42 40 43 42 45 46 49 44 41 38 38 39 39 42 41 44 44 42 38 35 34 38 28 24 24 25 23 26 26 26 28 27 26 29 25 30 34 31 29 27 28 25
55 50 45 43 44 44 49 49 52 53 51 55 53 51 51 47 46 42 41 41 39 40 44 47 45 42 36 33 32 27 34 30 31 35 37 38 35 33 35 35 36 36 37 37 37 37 36
57 56 53 52 54 51 55 57 57 55 53 55 54 55 55 57 59 60 58 55 57 57 55 53 51 54 55 49 42 40 40 40 42 40 43 43 45 45 46 44 43 46 43 42 42 41 43
64 62 62 61 60 60 61 60 61 63 66 64 63 60 60 59 58 61 63 66 69 65 62 63 63 63 60 59 59 61 61 58 55 56 55 51 49 50 50 53 58 57 53 49 49 49 51
71 71 70 72 72 70 71 72 72 70 69 70 68 66 66 66 66 67 68 68 67 70 72 70 69 68 70 70 70 68 66 66 63 63 67 68 65 61 60 59 61 67 64 62 58 56 57
79 78 78 75 78 78 78 79 82 80 79 79 78 75 74 73 75 74 77 74 73 74 74 72 75 74 73 72 71 71 70 70 72 68 70 72 75 74 71 71 70 68 70 71 67 69 69
Wind_Direction
321 328 334 340 342 344 345 350 354 358 2 10 12 17 17 22 23 35 44 49 46 46 41 89 192 193 198 196 197 197 200 201 202 205 207 208 209 211 211 211 212 215 217 217 220 231 231
318 323 330 338 341 345 345 350 354 359 5 13 16 18 20 21 26 27 36 45 49 54 54 62 111 172 182 189 192 193 196 199 200 204 206 208 207 210 210 212 213 215 216 217 220 229 231
313 319 325 334 339 344 346 350 354 1 7 14 20 20 23 21 23 28 29 35 39 49 56 63 72 140 173 180 184 189 189 196 200 202 206 206 207 209 208 211 213 216 218 218 221 225 231
313 317 324 330 338 343 345 349 354 2 9 16 20 23 23 24 23 26 28 33 40 44 56 58 70 87 170 180 183 187 188 192 197 200 204 205 206 207 209 210 213 217 219 219 223 225 229
309 316 323 328 336 340 345 348 355 2 9 17 21 26 24 25 25 25 31 35 40 46 54 51 50 58 113 181 185 187 189 189 194 198 201 202 204 207 209 212 214 217 218 222 223 227 231
308 314 322 330 334 339 344 350 356 4 12 19 22 26 28 26 27 27 30 35 44 42 49 51 50 73 66 143 187 185 188 190 191 195 200 203 204 208 211 212 215 217 219 223 225 230 232
307 315 321 330 336 339 344 352 359 7 16 19 23 25 29 30 28 29 31 35 40 44 32 45 97 103 107 113 163 174 187 188 193 196 200 203 205 207 210 214 217 219 221 224 227 231 234
306 313 319 332 335 341 348 357 4 11 15 21 24 25 26 30 30 30 33 37 37 39 46 49 85 104 108 123 145 163 177 188 191 195 199 202 205 207 211 214 216 218 220 224 228 232 235
304 312 321 330 339 344 353 3 11 13 15 22 25 27 29 30 33 33 33 36 39 39 42 49 44 78 115 118 134 153 170 184 189 195 199 203 205 208 211 214 216 219 222 226 230 233 237
315 320 327 335 346 354 2 9 14 13 14 19 24 27 29 32 34 35 35 37 39 43 44 48 49 52 85 111 126 144 165 180 187 196 198 203 208 210 212 215 217 220 222 227 231 234 238
328 336 345 357 6 16 15 10 13 15 14 17 22 25 30 32 34 36 37 38 39 40 44 49 54 58 54 79 108 140 158 178 189 192 200 202 206 211 213 216 219 222 225 229 234 237 241
348 356 7 15 21 15 13 14 11 14 17 18 21 23 27 30 33 34 37 38 42 41 42 46 51 54 59 63 74 106 144 170 185 196 199 204 207 208 213 218 221 225 229 232 236 241 245
7 14 18 13 11 14 14 14 13 14 16 19 19 18 23 28 33 34 34 39 40 42 43 46 46 51 55 59 67 75 81 136 178 194 204 206 209 211 216 220 225 229 233 237 240 243 247
19 8 7 3 6 6 5 9 13 13 16 18 18 15 17 25 27 31 37 35 40 40 41 44 46 47 48 54 58 61 70 93 105 178 208 210 215 218 218 222 226 229 234 238 242 245 249
356 352 348 349 353 354 2 2 10 11 15 18 16 19 17 22 25 25 27 37 36 38 43 43 46 49 48 49 51 55 61 61 72 107 164 208 223 227 227 229 232 235 239 242 244 247 253
327 332 334 336 344 349 356 359 1 7 12 14 15 17 16 20 22 23 23 27 34 36 36 42 44 44 51 52 54 54 56 57 61 66 79 112 203 222 229 235 240 244 247 250 253 256 257
317 321 325 327 337 350 351 354 355 357 6 15 13 8 8 13 17 19 23 23 23 27 36 36 39 40 42 47 49 53 56 58 61 62 63 73 169 215 227 240 245 248 251 254 256 257 258
307 313 317 321 335 337 335 337 346 348 355 1 9 7 1 6 9 10 12 19 19 18 24 31 34 37 38 38 43 46 50 55 56 62 65 66 67 74 229 252 253 251 249 249 248 249 251
299 303 304 303 314 319 328 329 336 342 335 342 342 354 356 357 360 360 5 4 4 15 15 21 22 32 33 35 35 36 38 44 46 50 61 63 71 86 77 75 73 72 73 66 245 246 252
298 297 299 300 308 306 313 316 318 324 326 325 331 333 337 340 341 349 356 358 358 359 7 15 13 7 12 23 26 25 27 33 32 39 42 44 49 57 51 48 70 96 103 83 99 101 101
287 290 290 294 300 299 308 310 309 315 318 319 326 327 328 331 336 336 338 337 341 345 344 352 358 5 349 349 358 7 11 8 15 17 12 16 31 27 16 22 31 22 67 60 64 85 95
277 280 284 286 287 287 291 295 294 297 305 307 315 316 318 320 323 326 329 330 332 334 337 339 340 341 341 338 331 336 338 348 346 343 345 345 342 345 340 340 340 348 342 343 39 30 28
272 279 279 276 278 282 283 285 288 285 288 291 295 299 306 314 316 318 318 317 319 321 322 323 326 327 316 324 326 320 313 314 317 317 310 309 320 310 308 314 315 312 316 312 314 307 339
261 266 270 273 276 275 277 277 277 279 283 287 292 293 296 300 304 312 311 312 311 311 311 309 307 309 312 305 301 294 306 298 297 298 301 297 293 292 298 294 294 293 296 296 299 298 298
264 265 260 260 262 268 271 275 278 275 278 281 284 285 289 290 290 293 292 293 295 297 302 303 303 300 293 293 289 276 287 289 283 284 289 295 288 284 281 284 284 279 279 284 282 285 286
260 261 253 255 263 265 264 265 265 268 271 274 275 279 282 289 291 290 292 293 292 294 293 293 292 296 299 292 289 283 286 286 286 285 282 279 284 286 286 280 276 274 277 276 275 279 276
261 252 248 247 251 253 258 261 263 267 269 268 273 275 277 278 278 280 286 288 289 290 290 291 292 293 291 287 287 288 284 282 281 284 286 283 285 282 286 281 281 282 277 267 269 271 272
259 260 257 254 253 255 255 258 262 263 266 268 269 269 274 276 275 275 278 280 283 287 288 289 289 288 287 288 288 286 285 284 282 283 281 284 286 284 284 284 276 279 283 281 273 263 263
259 259 260 260 260 258 260 260 262 264 265 267 269 269 272 275 274 278 281 282 284 285 284 286 286 285 285 283 282 281 279 280 282 284 287 287 286 284 285 283 279 274 273 279 278 276 272